Regional Weather Roundup
Issued by NWS

Home | Current Version | Previous Version | Text Only | Print | Product List | Glossary On
Versions: 1 2 3 4 5 6 7 8 9 10 11 12 13 14 15 16 17 18 19 20 21 22 23 24 25 26 27 28 29 30 31 32 33 34 35 36 37 38 39 40 41 42 43 44 45 46 47 48 49 50
000
ASUS44 KFWD 280715
RWRTX
NORTH TEXAS HOURLY WEATHER ROUNDUP
NATIONAL WEATHER SERVICE FORT WORTH TX
200 AM CDT WED JUN 28 2017

NOTE: "FAIR" INDICATES FEW OR NO CLOUDS BELOW 12,000 FEET WITH NO
SIGNIFICANT WEATHER AND/OR OBSTRUCTIONS TO VISIBILITY.

TXZ118-119-280800-
DALLAS/FORT WORTH METROPLEX

CITY           SKY/WX    TMP DP  RH WIND       PRES   REMARKS
DFW AIRPORT    PTCLDY    77  71  82 S9        29.94S
DALLAS LOVE    PTCLDY    77  69  76 SE9       29.95F
FTW MEACHAM    CLEAR     77  72  84 S9        29.94F
DAL-EXECUTIVE  CLEAR     74  71  91 SE7       29.95F
FTW-ALLIANCE   PTCLDY    77  71  82 S6        29.94F
FTW-NAS-JRB      N/A    N/A N/A N/A MISG      29.95S
FTW-SPINKS     CLEAR     73  71  92 SE3       29.97S
ARLINGTON      CLEAR     76  72  87 SE8       29.96S
GRAND PRAIRIE  CLEAR     76  69  79 SE6       29.97F
ADDISON        CLEAR     75  68  80 SE8       29.97F
MESQUITE       CLEAR     73  71  93 SE5       29.96F
LANCASTER      CLEAR     72  68  89 SE5       29.97S
$$

TXZ091>094-102>105-117-120-121-131>134-280800-
NORTH CENTRAL TEXAS

CITY           SKY/WX    TMP DP  RH WIND       PRES   REMARKS
SHRMAN/DENISON CLEAR     75  70  84 SE12      29.96F
GAINESVILLE    CLEAR     73  70  90 S5        29.96F
BOWIE          CLEAR     74  74 100 SE6       29.95F
BRIDGEPORT     CLEAR     73  73 100 S3        29.96S
DECATUR        CLEAR     75  71  88 S8        29.96S
DENTON         CLEAR     76  73  91 SE8       29.94F
MCKINNEY       CLEAR     74  72  93 S7        29.96F
BONHAM         CLEAR     73  68  83 SE8       29.97S
GREENVILLE     PTCLDY    75  72  88 S3        29.97F
ROCKWALL       PTCLDY    73  72  96 SE5       29.97S
TERRELL        CLEAR     74  70  87 CALM      29.97S
WAXAHACHIE     CLEAR     73  71  92 CALM      29.98S
CLEBURNE       CLEAR     73  73 100 S7        29.98S
GRANBURY       CLEAR     77  69  76 SE6       29.97S
$$

TXZ083>090-098>101-113>116-127>130-139>142-154-155-280800-
WESTERN NORTH TEXAS

CITY           SKY/WX    TMP DP  RH WIND       PRES   REMARKS
WICHITA FALLS  CLEAR     74  69  85 S12       29.91F
WF-KICKAPOO    CLEAR     76  71  85 SE13G18   29.94F
VERNON         CLEAR     76  64  66 SE15      29.91F
ABILENE        CLEAR     73  67  81 S12       29.97S
ABILENE-DYESS  CLEAR     73  67  80 S10       29.96R
GRAHAM         CLEAR     76  68  77 SE7       29.93F
BRECKENRIDGE   CLEAR     76  67  73 S13G18    29.95S
CISCO          CLEAR     73  68  83 S14       29.98S
EASTLAND       CLEAR     73  68  85 S10G18    29.97F
RANGER         CLEAR     73  69  88 S7        29.97F
MINERAL WELLS  CLEAR     74  68  81 S7        29.94S
STEPHENVILLE   CLEAR     72  68  88 CALM      30.00S
COMANCHE       CLEAR     71  68  92 SW7       29.98S
BROWNWOOD      PTCLDY    72  68  88 S5        29.98F
COLEMAN        CLEAR     73  64  74 S7        29.99F
$$

TXZ143>147-156>162-174-175-280800-
CENTRAL TEXAS

CITY           SKY/WX    TMP DP  RH WIND       PRES   REMARKS
WACO           CLEAR     75  72  90 S9        29.95F
WACO-MCGREGOR  CLEAR     72  70  93 SE3       29.96F
HILLSBORO      CLEAR     74  72  93 SE6       29.96F
CORSICANA      CLEAR     76  71  85 SE7       29.98S
MEXIA          CLEAR     70  68  93 CALM      29.96F
HEARNE         CLEAR     71  71 100 CALM      29.97F
CAMERON        CLEAR     72  71  95 CALM      29.96F
TEMPLE         CLEAR     73  70  90 S8        29.97F
KILLEEN        CLEAR     70  68  94 S5        29.96F
KILLEEN-SKYLRK CLEAR     71  69  93 S5        29.97F
FORT HOOD      CLEAR     71  68  91 S7        29.93F
HAMILTON       CLEAR     71  71 100 SW7       29.99S
LAMPASAS         N/A     71  69  93 CALM      29.98F
$$

TXZ095>097-106>112-122>126-135>138-148>153-164>167-280800-
EAST TEXAS

CITY           SKY/WX    TMP DP  RH WIND       PRES   REMARKS
PARIS            N/A     72  68  87 SE8       29.98F
SULPHUR SPRNGS CLEAR     75  69  81 SE7       29.99F
MOUNT PLEASANT PTCLDY    72  68  88 SE3       30.00S
GILMER         CLEAR     73  69  87 CALM      29.99R
MINEOLA        CLEAR     72  70  94 CALM      29.98S
TYLER          CLEAR     74  72  93 S6        29.97F
LONGVIEW       CLEAR     73  72  96 CALM      29.97F
MARSHALL         N/A     70  67  90 CALM      30.01S
ATHENS         PTCLDY    72  72 100 CALM      29.96S
PALESTINE      CLEAR     73  71  92 SE5       29.98F
JACKSONVILLE   CLEAR     71  70  97 SE3       30.01F
HENDERSON      PTCLDY    71  70  96 CALM      29.99F
CENTER         MOSUNNY   74  73  95 CALM      30.00S
NACOGDOCHES    CLEAR     70  66  88 MISG      29.97S
LUFKIN         CLEAR     70  68  93 E3        29.98S
$$

SUPPLEMENTAL OBSERVATIONS (NWS FORT WORTH AREA)

CITY           SKY/WX    TMP DP  RH WIND       PRES   REMARKS
DENISON DAM      N/A     73  68  83 E3          N/A
CADDO GRASSLND   N/A     75  68  78 S3          N/A
PAT MAYSE LAKE   N/A     75  72  88 E7          N/A
GREENVILLE       N/A     72  68  88 S1          N/A
CEDAR HILL       N/A     75  70  83 S6          N/A
LBJ GRASSLAND    N/A     75  70  83 SE7         N/A
POSSUM KINGDOM   N/A     75  68  78 S7          N/A
GRANBURY         N/A     75  68  78 S7          N/A
COMANCHE         N/A     72  66  83 S7          N/A
MCGREGOR         N/A     70  66  88 S3          N/A
TEMPLE           N/A     72  66  83 S3          N/A
LAKE LIMESTONE   N/A     72  68  88 SE1         N/A
ATHENS           N/A     75  72  88 S7          N/A
$$

SUPPLEMENTAL OBSERVATIONS (NWS NORMAN AREA)

CITY           SKY/WX    TMP DP  RH WIND       PRES   REMARKS
GOODLETT         N/A     76  64  66 SE10      29.89F
ODELL            N/A     75  68  80 SE13      29.91F
CROWELL          N/A     77  67  72 S14       29.92S
KNOX CITY        N/A     77  64  63 S12       29.93S
SEYMOUR          N/A     76  67  73 SE13      29.92F
MILLERS CREEK    N/A     75  68  78 S17         N/A
$$

SUPPLEMENTAL OBSERVATIONS (NWS SAN ANGELO AREA)

CITY           SKY/WX    TMP DP  RH WIND       PRES   REMARKS
WEINERT          N/A     75  67  75 S9        29.94S
HASKELL          N/A     76  64  64 S10G16    29.94S
THROCKMORTON     N/A     75  69  80 S8        29.95S
STAMFORD         N/A     76  67  72 S15       29.95F
CLYDE            N/A     72  66  83 S12       30.00S
HAMBY            N/A     75  66  73 S14         N/A
IVIE RESERVOIR   N/A     70  64  83 E7          N/A
COLORADO BEND    N/A     68  64  88 S3          N/A
$$

SUPPLEMENTAL OBSERVATIONS (NWS SHREVEPORT AREA)

CITY           SKY/WX    TMP DP  RH WIND       PRES   REMARKS
CLARKSVILLE      N/A     73  64  73 SE6         N/A
TEXARKANA        N/A     70  66  88 CALM        N/A
LINDEN           N/A     72  66  83 CALM        N/A
CADDO LAKE       N/A     66  64  94 CALM        N/A
GILMER           N/A     72  66  83 CALM        N/A
HENDERSON        N/A     72  68  88 CALM        N/A
LUFKIN           N/A     72  68  88 MISG        N/A
N SABINE NF      N/A     70  68  94 MISG        N/A
S SABINE NF      N/A     70  68  94 CALM        N/A
$$

SUPPLEMENTAL OBSERVATIONS ARE A COLLECTION OF AUTOMATED INSTRUMENTS
THAT ARE MAINTAINED BY A VARIETY OF FEDERAL AND STATE AGENCIES.
CERTAIN ELEMENTS...SUCH AS HUMIDITY VALUES AND SUSTAINED WIND
SPEEDS...MAY BE APPROXIMATED.





USA.gov is the U.S. government's official web portal to all federal, state and local government web resources and services.